This is the latest recevied weather packets stored in our database for station/object KQ4OSL. If no packets are shown the sender has not sent any weather packets the latest 10 day(s).
| Time | Temp. | Humidity | Pressure | Rain* | Wind** | Luminosity | Snow |
|---|---|---|---|---|---|---|---|
| 1777576410 | 20° C | 67% | 1014.3 hPa | 0 mm | - | 280 W/m² | - |
| 1777576107 | 20.56° C | 66% | 1014.1 hPa | 0 mm | - | 387 W/m² | - |
| 1777575802 | 20° C | 65% | 1014.3 hPa | 0 mm | - | 512 W/m² | - |
| 1777575500 | 20° C | 68% | 1014.2 hPa | 0 mm | - | 544 W/m² | - |
| 1777575195 | 20° C | 66% | 1014 hPa | 0 mm | - | 405 W/m² | - |
| 1777574891 | 20° C | 67% | 1014.3 hPa | 0 mm | - | 300 W/m² | - |
| 1777574589 | 19.44° C | 70% | 1014.2 hPa | 0 mm | - | 285 W/m² | - |
| 1777574285 | 20° C | 69% | 1014.3 hPa | 0 mm | - | 287 W/m² | - |
| 1777573980 | 20° C | 68% | 1014.4 hPa | 0 mm | - | 348 W/m² | - |
| 1777573675 | 19.44° C | 68% | 1014.2 hPa | 0 mm | - | 315 W/m² | - |
| 1777573372 | 20° C | 67% | 1014.4 hPa | 0 mm | - | 334 W/m² | - |
| 1777573067 | 20° C | 66% | 1014 hPa | 0 mm | - | 430 W/m² | - |
| 1777572765 | 20° C | 68% | 1014.1 hPa | 0 mm | - | 495 W/m² | - |
| 1777572465 | 19.44° C | 66% | 1014.1 hPa | 0 mm | - | 451 W/m² | - |
| 1777572161 | 19.44° C | 68% | 1014 hPa | 0 mm | - | 501 W/m² | - |
| 1777571857 | 19.44° C | 68% | 1014.4 hPa | 0 mm | - | 452 W/m² | - |
| 1777571552 | 19.44° C | 68% | 1014 hPa | 0 mm | - | 418 W/m² | - |
| 1777571249 | 19.44° C | 69% | 1014 hPa | 0 mm | - | 395 W/m² | - |
| 1777570946 | 19.44° C | 67% | 1014.1 hPa | 0 mm | - | 484 W/m² | - |
| 1777570641 | 19.44° C | 70% | 1014.3 hPa | 0 mm | - | 460 W/m² | - |
| 1777570338 | 19.44° C | 71% | 1014.4 hPa | 0 mm | - | 426 W/m² | - |
| 1777570034 | 20° C | 70% | 1014.3 hPa | 0 mm | - | 427 W/m² | - |
| 1777569730 | 19.44° C | 71% | 1014.4 hPa | 0 mm | - | 525 W/m² | - |
| 1777569425 | 20° C | 69% | 1014.6 hPa | 0 mm | - | 526 W/m² | - |
| 1777569123 | 19.44° C | 68% | 1014.6 hPa | 0 mm | - | 703 W/m² | - |
* Rain latest hour (hover to see other rain measurements)
** Current wind speed in m/s (hover to see current wind gust speed)